Lakeville, MN

4:43 AM CST on December 09, 2016 (GMT -0600)
Airlake

Weather History for KLVN - November, 2012

Change the Weather History Date:

Sunday, November 4, 2012

  Actual Average Record
Temperature  
Mean Temperature 34 °F -  
Max Temperature 42 °F 44 °F 73 °F (1975)
Min Temperature 26 °F 28 °F -2 °F (1991)
Degree Days  
Heating Degree Days 31    
Moisture  
Dew Point 33 °F    
Average Humidity 88    
Maximum Humidity 100    
Minimum Humidity 70    
Precipitation  
Precipitation 0.00 in - - ()
Sea Level Pressure  
Sea Level Pressure 30.18 in    
Wind  
Wind Speed 2 mph (East)    
Max Wind Speed 8 mph    
Max Gust Speed -    
Visibility 8 miles    
Events      
Averages and records for this station are not official NWS values.
T = Trace of Precipitation, MM = Missing Value Source: NWS Daily Summary

Daily Weather History Graph

Daily Weather History Graph

Search for Another Location

Airport or City:

Trip Planner

Search our weather history database for the weather conditions in past years. The results will help you decide how hot, cold, wet, or windy it might be!

Date:

Astronomy

Nov. 04, 2012 Rise Set
Actual Time 6:55 AM CST 4:56 PM CST
Civil Twilight 6:24 AM CST 5:27 PM CST
Nautical Twilight 5:50 AM CST 6:02 PM CST
Astronomical Twilight 5:15 AM CST 6:36 PM CST
Moon 9:33 PM CST (11/4) 11:42 AM CST (11/4)
Length of Visible Light 11h 02m
Length of Day
10h 01m
Waning Gibbous, 72% of the Moon is Illuminated
Nov 4
Waning Gibbous
Nov 6
Last Quarter
Nov 13
New
Nov 20
First Quarter
Nov 28
Full

Hourly Weather History & Observations

Time (CST) Temp. Windchill Dew Point Humidity Pressure Visibility Wind Dir Wind Speed Gust Speed Precip Events Conditions
12:11 AM 37.4 °F - 32.0 °F 81% 30.21 in 10.0 mi Calm Calm - N/A   Drizzle
12:31 AM 37.4 °F - 32.0 °F 81% 30.22 in 10.0 mi Calm Calm - N/A   Light Drizzle
12:51 AM 35.6 °F - 32.0 °F 87% 30.21 in 10.0 mi Calm Calm - N/A   Drizzle
1:12 AM 37.4 °F - 32.0 °F 81% 30.22 in 10.0 mi Calm Calm - N/A   Light Drizzle
1:31 AM 35.6 °F - 32.0 °F 87% 30.22 in 10.0 mi Calm Calm - N/A   Unknown
1:52 AM 33.8 °F - 30.2 °F 87% 30.21 in 10.0 mi Calm Calm - N/A   Unknown
1:11 AM 32.0 °F - 30.2 °F 93% 30.21 in 10.0 mi Calm Calm - N/A   Clear
1:32 AM 32.0 °F - 30.2 °F 93% 30.21 in 10.0 mi Calm Calm - N/A   Clear
1:52 AM 28.4 °F - 26.6 °F 93% 30.21 in 7.0 mi Calm Calm - N/A   Clear
2:11 AM 30.2 °F - 28.4 °F 93% 30.21 in 5.0 mi Calm Calm - N/A   Clear
2:31 AM 28.4 °F - 28.4 °F 100% 30.21 in 5.0 mi Calm Calm - N/A   Scattered Clouds
2:52 AM 26.6 °F - 26.6 °F 100% 30.21 in 5.0 mi Calm Calm - N/A   Mist
3:11 AM 28.4 °F - 28.4 °F 100% 30.21 in 5.0 mi Calm Calm - N/A   Mist
3:31 AM 30.2 °F - 30.2 °F 100% 30.21 in 7.0 mi Calm Calm - N/A   Unknown
3:52 AM 30.2 °F - 30.2 °F 100% 30.21 in 5.0 mi Calm Calm - N/A   Mist
4:11 AM 30.2 °F - 30.2 °F 100% 30.21 in 5.0 mi Calm Calm - N/A   Mist
4:31 AM 30.2 °F - 30.2 °F 100% 30.21 in 7.0 mi Calm Calm - N/A   Unknown
4:52 AM 30.2 °F - 28.4 °F 93% 30.21 in 5.0 mi Calm Calm - N/A   Mist
5:11 AM 30.2 °F - 30.2 °F 100% 30.21 in 5.0 mi Calm Calm - N/A   Mist
5:31 AM 28.4 °F - 28.4 °F 100% 30.21 in 4.0 mi Calm Calm - N/A   Mist
5:52 AM 30.2 °F - 28.4 °F 93% 30.21 in 4.0 mi Calm Calm - N/A   Mist
6:11 AM 28.4 °F - 28.4 °F 100% 30.20 in 4.0 mi Calm Calm - N/A   Mist
6:31 AM 30.2 °F - 30.2 °F 100% 30.21 in 3.0 mi Calm Calm - N/A   Mist
6:52 AM 28.4 °F - 28.4 °F 100% 30.20 in 1.2 mi Calm Calm - N/A   Mist
7:11 AM 28.4 °F - 28.4 °F 100% 30.21 in 2.5 mi Calm Calm - N/A   Mist
7:31 AM 30.2 °F - 30.2 °F 100% 30.21 in 4.0 mi Calm Calm - N/A   Mist
7:52 AM 30.2 °F - 30.2 °F 100% 30.21 in 4.0 mi Calm Calm - N/A   Mist
8:11 AM 30.2 °F - 30.2 °F 100% 30.21 in 5.0 mi Calm Calm - N/A   Mist
8:32 AM 32.0 °F - 30.2 °F 93% 30.21 in 7.0 mi Calm Calm - N/A   Unknown
8:52 AM 32.0 °F 28.7 °F 30.2 °F 93% 30.21 in 7.0 mi ENE 3.5 mph - N/A   Overcast
9:11 AM 33.8 °F 30.8 °F 30.2 °F 87% 30.21 in 7.0 mi East 3.5 mph - N/A   Overcast
9:32 AM 33.8 °F 30.8 °F 32.0 °F 93% 30.21 in 10.0 mi East 3.5 mph - N/A   Unknown
9:51 AM 35.6 °F 32.8 °F 32.0 °F 87% 30.20 in 10.0 mi East 3.5 mph - N/A   Unknown
10:11 AM 35.6 °F 31.7 °F 32.0 °F 87% 30.20 in 10.0 mi ENE 4.6 mph - N/A   Unknown
10:31 AM 35.6 °F 32.8 °F 33.8 °F 93% 30.20 in 10.0 mi East 3.5 mph - N/A   Unknown
10:51 AM 37.4 °F 33.8 °F 33.8 °F 87% 30.20 in 10.0 mi East 4.6 mph - N/A   Unknown
11:11 AM 37.4 °F 33.8 °F 33.8 °F 87% 30.19 in 10.0 mi East 4.6 mph - N/A   Overcast
11:31 AM 37.4 °F 32.8 °F 33.8 °F 87% 30.19 in 10.0 mi East 5.8 mph - N/A   Overcast
11:52 AM 39.2 °F 35.0 °F 33.8 °F 81% 30.18 in 10.0 mi East 5.8 mph - N/A   Overcast
12:11 PM 39.2 °F 35.0 °F 33.8 °F 81% 30.17 in 10.0 mi East 5.8 mph - N/A   Overcast
12:31 PM 39.2 °F 35.9 °F 33.8 °F 81% 30.17 in 10.0 mi ESE 4.6 mph - N/A   Overcast
12:52 PM 39.2 °F 35.0 °F 33.8 °F 81% 30.16 in 10.0 mi East 5.8 mph - N/A   Overcast
1:12 PM 39.2 °F 37.0 °F 35.6 °F 87% 30.15 in 10.0 mi ESE 3.5 mph - N/A   Overcast
1:31 PM 41.0 °F 38.0 °F 35.6 °F 81% 30.15 in 10.0 mi ESE 4.6 mph - N/A   Unknown
1:52 PM 41.0 °F 37.1 °F 33.8 °F 76% 30.14 in 10.0 mi ESE 5.8 mph - N/A   Overcast
2:12 PM 42.8 °F 38.0 °F 33.8 °F 70% 30.14 in 10.0 mi ESE 8.1 mph - N/A   Overcast
2:31 PM 42.8 °F 40.1 °F 35.6 °F 76% 30.13 in 10.0 mi ESE 4.6 mph - N/A   Overcast
2:52 PM 42.8 °F 38.0 °F 35.6 °F 76% 30.13 in 10.0 mi ESE 8.1 mph - N/A   Mostly Cloudy
3:12 PM 42.8 °F 38.6 °F 35.6 °F 76% 30.13 in 10.0 mi ESE 6.9 mph - N/A   Overcast
3:31 PM 42.8 °F 38.6 °F 35.6 °F 76% 30.13 in 10.0 mi East 6.9 mph - N/A   Mostly Cloudy
3:52 PM 42.8 °F 39.3 °F 35.6 °F 76% 30.13 in 10.0 mi East 5.8 mph - N/A   Overcast
4:12 PM 42.8 °F 39.3 °F 35.6 °F 76% 30.13 in 10.0 mi East 5.8 mph - N/A   Unknown
4:31 PM 41.0 °F 39.0 °F 35.6 °F 81% 30.13 in 10.0 mi East 3.5 mph - N/A   Unknown
4:52 PM 41.0 °F 39.0 °F 35.6 °F 81% 30.13 in 10.0 mi ENE 3.5 mph - N/A   Unknown
5:12 PM 39.2 °F 35.9 °F 35.6 °F 87% 30.13 in 10.0 mi East 4.6 mph - N/A   Scattered Clouds
5:31 PM 41.0 °F 37.1 °F 35.6 °F 81% 30.13 in 10.0 mi East 5.8 mph - N/A   Unknown
5:52 PM 41.0 °F 38.0 °F 35.6 °F 81% 30.13 in 10.0 mi East 4.6 mph - N/A   Mostly Cloudy
6:12 PM 39.2 °F 35.0 °F 35.6 °F 87% 30.14 in 10.0 mi East 5.8 mph - N/A   Unknown
6:31 PM 39.2 °F 35.9 °F 35.6 °F 87% 30.14 in 10.0 mi East 4.6 mph - N/A   Mostly Cloudy
6:52 PM 39.2 °F 35.0 °F 35.6 °F 87% 30.14 in 10.0 mi East 5.8 mph - N/A   Unknown
7:12 PM 39.2 °F 35.9 °F 35.6 °F 87% 30.14 in 10.0 mi East 4.6 mph - N/A   Mostly Cloudy
7:31 PM 39.2 °F 35.9 °F 35.6 °F 87% 30.14 in 10.0 mi East 4.6 mph - N/A   Unknown
7:52 PM 39.2 °F 35.0 °F 35.6 °F 87% 30.14 in 10.0 mi East 5.8 mph - N/A   Overcast
8:12 PM 39.2 °F 35.0 °F 35.6 °F 87% 30.14 in 10.0 mi East 5.8 mph - N/A   Unknown
8:31 PM 39.2 °F 34.2 °F 35.6 °F 87% 30.14 in 10.0 mi East 6.9 mph - N/A   Unknown
8:52 PM 39.2 °F 35.0 °F 35.6 °F 87% 30.14 in 10.0 mi East 5.8 mph - N/A   Mostly Cloudy
9:12 PM 39.2 °F 35.0 °F 35.6 °F 87% 30.14 in 10.0 mi East 5.8 mph - N/A   Mostly Cloudy
9:31 PM 39.2 °F 35.0 °F 35.6 °F 87% 30.13 in 10.0 mi East 5.8 mph - N/A   Overcast
9:52 PM 39.2 °F 35.9 °F 33.8 °F 81% 30.13 in 10.0 mi East 4.6 mph - N/A   Scattered Clouds
10:11 PM 39.2 °F 37.0 °F 35.6 °F 87% 30.13 in 10.0 mi East 3.5 mph - N/A   Unknown
10:31 PM 39.2 °F 37.0 °F 35.6 °F 87% 30.13 in 10.0 mi East 3.5 mph - N/A   Overcast
10:52 PM 39.2 °F 35.9 °F 35.6 °F 87% 30.13 in 10.0 mi East 4.6 mph - N/A   Unknown